Location: Brunnen
(48.6541°N, 10.9920°E)
Time: 04:24:20
(UTC+00:00)

SWAS - Pass Details

Date: 01 June 2020
Orbit: 578 x 593 km, 69.9° (Epoch: 14 July)

Event Time Altitude Azimuth Distance (km) Brightness Sun altitude
Rises 20:57:28 0° 330° (NNW) 2,829 10.1 -12.9°
Reaches altitude 10° 20:59:42 10° 331° (NNW) 1,926 8.6 -13.1°
Maximum altitude 21:04:02 86° 58° (ENE) 599 4.4 -13.4°
Enters shadow 21:06:45 22° 149° (SSE) 1,296 5.6 -13.6°
